User: anonymous   Login
Location: Unspecified
(47.1700°N, 0.0000°E)
Time: 10:53:53
(UTC+00:00)
Language:

STRAND 1 - Orbit

View from above orbital plane
View from above orbital plane
View from above satellite
View from above satellite

Ground track
Ground track

The orbit data is extracted from the following two-line orbital elements,

1 39090U 13009E   19197.53556886  .00000022  00000-0  22875-4 0  9999
2 39090  98.4862  43.0238 0008632 199.1566 160.9296 14.35090098334389
Epoch (UTC): 16 July 2019 12:51:13
Eccentricity: 0.0008632
inclination: 98.4862°
perigee height: 768 km
apogee height: 781 km
right ascension of ascending node: 43.0238°
argument of perigee: 199.1566°
revolutions per day: 14.35090098
mean anomaly at epoch: 160.9296°
orbit number at epoch: 33438

The dashed part of the orbit path shows where the satellite is in the earth's shadow,  

DLR